When you browse on this site, cookies collect data to enhance your experience and personalize the content and advertising you see.
Visit our Privacy Policy to learn more. By continuing to use the site, you agree to this use of cookies and data.
  • In Deutschland
  • Länderverzeichnis
  • Für 7 Tage
  • Wassertemperatur
  • Wetterkarte
  • Widgets
  • user-avatar
    Anmelden

    Stündliche Wetter Bochum

    Heute, 21 August, Mittwoch

    Zeit Temperatur Niederschläge Wind Luftdruck Luftfeuchtigkeit
    00:00 +14°C° 0 mm 0 m/S 762 mmHg 71%
    01:00 +15°C° 0 mm 1 m/S 762 mmHg 72%
    02:00 +14°C° 0 mm 1 m/S 762 mmHg 73%
    03:00 +14°C° 0 mm 1 m/S 762 mmHg 75%
    04:00 +14°C° 0 mm 1 m/S 762 mmHg 73%
    05:00 +15°C° 0 mm 1 m/S 762 mmHg 71%
    06:00 +15°C° 0 mm 1 m/S 762 mmHg 69%
    07:00 +18°C° 0 mm 1 m/S 762 mmHg 61%
    08:00 +20°C° 0 mm 1 m/S 763 mmHg 52%
    09:00 +22°C° 0 mm 1 m/S 763 mmHg 44%
    10:00 +23°C° 0 mm 1 m/S 762 mmHg 40%
    11:00 +24°C° 0 mm 1 m/S 762 mmHg 36%
    12:00 +25°C° 0 mm 1 m/S 762 mmHg 32%
    13:00 +25°C° 0 mm 1 m/S 762 mmHg 32%
    14:00 +25°C° 0 mm 1 m/S 762 mmHg 31%
    15:00 +25°C° 0 mm 1 m/S 761 mmHg 30%
    16:00 +24°C° 0 mm 1 m/S 761 mmHg 35%
    17:00 +23°C° 0 mm 1 m/S 761 mmHg 40%
    18:00 +22°C° 0 mm 1 m/S 761 mmHg 45%
    19:00 +21°C° 0 mm 1 m/S 761 mmHg 47%
    20:00 +20°C° 0 mm 1 m/S 761 mmHg 49%
    21:00 +18°C° 0 mm 2 m/S 762 mmHg 51%
    22:00 +18°C° 0 mm 1 m/S 761 mmHg 53%
    23:00 +18°C° 0 mm 1 m/S 761 mmHg 55%

    Morgen, 22 August, Donnerstag

    Zeit Temperatur Niederschläge Wind Luftdruck Luftfeuchtigkeit
    00:00 +18°C° 0 mm 1 m/S 761 mmHg 57%
    01:00 +16°C° 0 mm 1 m/S 761 mmHg 59%
    02:00 +16°C° 0 mm 1 m/S 761 mmHg 60%
    03:00 +16°C° 0 mm 1 m/S 761 mmHg 62%
    04:00 +16°C° 0 mm 1 m/S 761 mmHg 61%
    05:00 +17°C° 0 mm 2 m/S 761 mmHg 61%
    06:00 +17°C° 0 mm 2 m/S 761 mmHg 61%
    07:00 +19°C° 0 mm 2 m/S 761 mmHg 55%
    08:00 +21°C° 0 mm 2 m/S 761 mmHg 49%
    09:00 +24°C° 0 mm 2 m/S 761 mmHg 44%
    10:00 +25°C° 0 mm 2 m/S 761 mmHg 41%
    11:00 +26°C° 0 mm 2 m/S 761 mmHg 38%
    12:00 +27°C° 0 mm 2 m/S 761 mmHg 35%
    13:00 +27°C° 0 mm 2 m/S 760 mmHg 35%
    14:00 +27°C° 0 mm 2 m/S 760 mmHg 36%
    15:00 +27°C° 0 mm 2 m/S 760 mmHg 36%
    16:00 +26°C° 0 mm 2 m/S 760 mmHg 42%
    17:00 +24°C° 0 mm 2 m/S 760 mmHg 48%
    18:00 +23°C° 0 mm 2 m/S 760 mmHg 53%
    19:00 +21°C° 0 mm 2 m/S 760 mmHg 57%
    20:00 +21°C° 0 mm 1 m/S 761 mmHg 60%
    21:00 +20°C° 0 mm 1 m/S 761 mmHg 64%
    22:00 +19°C° 0 mm 1 m/S 761 mmHg 66%
    23:00 +19°C° 0 mm 1 m/S 761 mmHg 67%

    übermorgen, 23 August, Freitag

    Zeit Temperatur Niederschläge Wind Luftdruck Luftfeuchtigkeit
    00:00 +19°C° 0 mm 1 m/S 761 mmHg 69%
    01:00 +18°C° 0 mm 1 m/S 761 mmHg 70%
    02:00 +18°C° 0 mm 1 m/S 760 mmHg 71%
    03:00 +18°C° 0 mm 1 m/S 760 mmHg 72%
    04:00 +18°C° 0 mm 1 m/S 760 mmHg 70%
    05:00 +19°C° 0 mm 1 m/S 760 mmHg 69%
    06:00 +19°C° 0 mm 1 m/S 760 mmHg 68%
    07:00 +21°C° 0 mm 1 m/S 760 mmHg 60%
    08:00 +23°C° 0 mm 1 m/S 760 mmHg 53%
    09:00 +25°C° 0 mm 1 m/S 761 mmHg 46%
    10:00 +27°C° 0 mm 1 m/S 760 mmHg 42%
    11:00 +28°C° 0 mm 1 m/S 760 mmHg 38%
    12:00 +29°C° 0 mm 1 m/S 760 mmHg 34%
    13:00 +29°C° 0 mm 1 m/S 759 mmHg 34%
    14:00 +29°C° 0 mm 2 m/S 759 mmHg 33%
    15:00 +29°C° 0 mm 2 m/S 759 mmHg 33%
    16:00 +28°C° 0 mm 2 m/S 759 mmHg 38%
    17:00 +27°C° 0 mm 2 m/S 759 mmHg 43%
    18:00 +25°C° 0 mm 2 m/S 758 mmHg 48%
    19:00 +24°C° 0 mm 3 m/S 759 mmHg 51%
    20:00 +22°C° 0 mm 3 m/S 759 mmHg 54%
    21:00 +21°C° 0 mm 3 m/S 759 mmHg 56%
    22:00 +20°C° 0 mm 2 m/S 759 mmHg 58%
    23:00 +20°C° 0 mm 2 m/S 759 mmHg 60%

    24 August, Samstag

    Zeit Temperatur Niederschläge Wind Luftdruck Luftfeuchtigkeit
    00:00 +19°C° 0 mm 2 m/S 758 mmHg 62%
    01:00 +19°C° 0 mm 2 m/S 758 mmHg 63%
    02:00 +19°C° 0 mm 2 m/S 758 mmHg 63%
    03:00 +19°C° 0 mm 1 m/S 758 mmHg 64%
    04:00 +19°C° 0 mm 1 m/S 758 mmHg 64%
    05:00 +20°C° 0 mm 1 m/S 758 mmHg 63%
    06:00 +20°C° 0 mm 1 m/S 757 mmHg 63%
    07:00 +21°C° 0 mm 2 m/S 757 mmHg 57%
    08:00 +24°C° 0 mm 2 m/S 758 mmHg 50%
    09:00 +26°C° 0 mm 2 m/S 758 mmHg 44%
    10:00 +27°C° 0 mm 2 m/S 757 mmHg 40%
    11:00 +29°C° 0 mm 2 m/S 757 mmHg 37%
    12:00 +30°C° 0 mm 2 m/S 757 mmHg 33%
    13:00 +30°C° 0 mm 2 m/S 756 mmHg 33%
    14:00 +30°C° 0 mm 2 m/S 756 mmHg 33%
    15:00 +30°C° 0 mm 2 m/S 755 mmHg 33%
    16:00 +29°C° 0 mm 2 m/S 755 mmHg 38%
    17:00 +28°C° 0 mm 2 m/S 755 mmHg 44%
    18:00 +26°C° 0 mm 2 m/S 755 mmHg 49%
    19:00 +25°C° 0 mm 2 m/S 755 mmHg 52%
    20:00 +24°C° 0 mm 2 m/S 756 mmHg 56%
    21:00 +23°C° 0 mm 2 m/S 756 mmHg 59%
    22:00 +23°C° 0 mm 2 m/S 756 mmHg 61%
    23:00 +21°C° 0 mm 2 m/S 755 mmHg 62%

    25 August, Sonntag

    Zeit Temperatur Niederschläge Wind Luftdruck Luftfeuchtigkeit
    00:00 +21°C° 0 mm 2 m/S 755 mmHg 64%
    01:00 +21°C° 0 mm 1 m/S 755 mmHg 65%
    02:00 +21°C° 0 mm 1 m/S 755 mmHg 67%
    03:00 +21°C° 0 mm 1 m/S 755 mmHg 68%
    04:00 +21°C° 0 mm 1 m/S 755 mmHg 69%
    05:00 +21°C° 0 mm 1 m/S 755 mmHg 69%
    06:00 +22°C° 0 mm 1 m/S 755 mmHg 69%
    07:00 +24°C° 0 mm 1 m/S 755 mmHg 63%
    08:00 +26°C° 0 mm 1 m/S 755 mmHg 57%
    09:00 +28°C° 0 mm 1 m/S 755 mmHg 50%
    10:00 +30°C° 0 mm 1 m/S 754 mmHg 47%
    11:00 +31°C° 0 mm 1 m/S 754 mmHg 44%
    12:00 +32°C° 0 mm 1 m/S 754 mmHg 40%
    13:00 +32°C° 0 mm 1 m/S 754 mmHg 39%
    14:00 +32°C° 0 mm 1 m/S 753 mmHg 38%
    15:00 +32°C° 0 mm 1 m/S 753 mmHg 37%
    16:00 +31°C° 0 mm 1 m/S 753 mmHg 41%
    17:00 +30°C° 0 mm 1 m/S 753 mmHg 45%
    18:00 +28°C° 0 mm 1 m/S 753 mmHg 50%
    19:00 +27°C° 0 mm 1 m/S 753 mmHg 52%
    20:00 +26°C° 0 mm 1 m/S 753 mmHg 54%
    21:00 +25°C° 0 mm 1 m/S 754 mmHg 57%
    22:00 +25°C° 0 mm 1 m/S 753 mmHg 58%
    23:00 +24°C° 0 mm 1 m/S 753 mmHg 59%

    26 August, Montag

    Zeit Temperatur Niederschläge Wind Luftdruck Luftfeuchtigkeit
    00:00 +24°C° 0 mm 1 m/S 753 mmHg 60%
    01:00 +23°C° 0 mm 1 m/S 753 mmHg 61%
    02:00 +23°C° 0 mm 1 m/S 753 mmHg 62%
    03:00 +23°C° 0 mm 2 m/S 752 mmHg 63%
    04:00 +23°C° 0 mm 2 m/S 753 mmHg 64%
    05:00 +23°C° 0 mm 2 m/S 753 mmHg 64%
    06:00 +23°C° 0 mm 2 m/S 753 mmHg 65%
    07:00 +25°C° 0 mm 2 m/S 753 mmHg 58%
    08:00 +27°C° 0 mm 2 m/S 753 mmHg 51%
    09:00 +29°C° 0 mm 2 m/S 753 mmHg 44%
    10:00 +30°C° 0 mm 3 m/S 753 mmHg 40%
    11:00 +31°C° 0 mm 3 m/S 753 mmHg 37%
    12:00 +33°C° 0 mm 3 m/S 753 mmHg 33%
    13:00 +33°C° 0 mm 4 m/S 752 mmHg 37%
    14:00 +32°C° 0 mm 4 m/S 752 mmHg 41%
    15:00 +30°C° 0 mm 5 m/S 752 mmHg 44%
    16:00 +28°C° 0.2 mm 5 m/S 753 mmHg 51%
    17:00 +26°C° 0.2 mm 4 m/S 753 mmHg 57%
    18:00 +23°C° 0.2 mm 4 m/S 754 mmHg 64%
    19:00 +22°C° 0 mm 4 m/S 754 mmHg 64%
    20:00 +21°C° 0 mm 3 m/S 755 mmHg 63%
    21:00 +20°C° 0 mm 3 m/S 756 mmHg 63%
    22:00 +19°C° 0 mm 3 m/S 756 mmHg 63%
    23:00 +19°C° 0 mm 3 m/S 756 mmHg 64%
    Mehr zeigen